Location: Newark
(44.4156°N, 12.1972°E)
Time: 18:48:55
(UTC+00:00)

STARLINK-1126 - Pass Details

Date: 30 January 2020
Orbit: 348 x 351 km, 53.0° (Epoch: 18 February)

Event Time Altitude Azimuth Distance (km) Brightness Sun altitude
Rises 16:39:00 0° 307° (NW) 2,168 7.2 -4.5°
Reaches altitude 10° 16:41:14 10° 321° (NW) 1,324 5.8 -4.9°
Maximum altitude 16:43:44 24° 19° (NNE) 783 4.1 -5.3°
Drops below altitude 10° 16:46:13 10° 77° (ENE) 1,320 4.9 -5.7°
Enters shadow 16:46:47 - 82° (E) 1,523 5.2 -5.8°
